Flag for France Weather past 2 weeks in Royan, France

Now
81 °F

Warm.


Feels Like: 81 °F
Forecast: 66 / 79 °F
Wind: 7 mph from Southwest

Location: Cognac Airport

Current Time: Sep 19, 2014 at 4:50:55 PM

Latest Report: Sep 19, 2014 at 4:30 PM


Visibility: N/A

Pressure: 29.83 "Hg

Humidity: 42%

Dew point: 55 °F

Location of RoyanLocation

Historic Weather in Royan — Graph

°F

Royan temperature yesterday

Maximum temperature yesterday: 81 °F (at 3:00 PM)
Minimum temperature yesterday: 63 °F (at 6:00 AM)
Average temperature yesterday: 71 °F

Past Weeks' High & Low Weather Summary

 TemperatureHumidityPressure
High86 °F (Sep 7, 4:00 PM)100% (Sep 5, 6:30 AM)30.12 "Hg (Sep 5, 6:30 AM)
Low54 °F (Sep 12, 7:30 AM)32% (Sep 10, 6:30 PM)29.65 "Hg (Sep 17, 4:30 AM)
Average70 °F68%29.91 "Hg
* Reported Sep 4 3:00 PM — Sep 19 3:30 PM, Royan, Weather by CustomWeather, © 2014

Note: Actual official high and low records may vary slightly from our data, if they occured in-between our weather recording intervals... More about our weather records

Advertising

Royan weather history for previous 24 hours

 ConditionsComfort  
Time TempWeatherWind HumidityBarometerVisibility
3:30 PM
Sep 19
82 °FClear.6 mph40%29.83 "HgN/A
3:00 PM82 °FClear.6 mph40%29.83 "HgN/A
2:30 PM81 °FClear.7 mph45%29.83 "HgN/A
2:00 PM81 °FClear.6 mph45%29.83 "HgN/A
1:30 PM79 °FClear.7 mph58%29.83 "HgN/A
1:00 PM79 °FClear.7 mph58%29.83 "HgN/A
12:30 PM77 °FMostly cloudy.6 mph61%29.83 "HgN/A
12:00 PM75 °FPartly sunny.3 mph69%29.83 "HgN/A
11:30 AM72 °FClear.7 mph78%29.83 "HgN/A
11:00 AM72 °FClear.3 mph78%29.80 "HgN/A
10:30 AM70 °FClear.2 mph83%29.80 "HgN/A
10:00 AM70 °FClear.9 mph83%29.80 "HgN/A
9:30 AM70 °FClear.10 mph83%29.80 "HgN/A
9:00 AM68 °FClear.5 mph88%29.80 "HgN/A
8:30 AM66 °FClear.6 mph88%29.77 "HgN/A
8:00 AM66 °FClear.7 mph88%29.77 "HgN/A
7:30 AM66 °FClear.6 mph83%29.77 "HgN/A
7:00 AM66 °FClear.5 mph88%29.77 "HgN/A
6:30 AM66 °FClear.5 mph88%29.77 "HgN/A
6:00 AM66 °FClear.6 mph88%29.74 "HgN/A
5:30 AM66 °FClear.6 mph88%29.74 "HgN/A
5:00 AM66 °FClear.6 mph88%29.74 "HgN/A
4:30 AM66 °FClear.7 mph88%29.74 "HgN/A
4:00 AM66 °FClear.7 mph88%29.77 "HgN/A
3:30 AM66 °FClear.7 mph88%29.77 "HgN/A
3:00 AM66 °FClear.8 mph83%29.77 "HgN/A
2:30 AM66 °FClear.8 mph88%29.77 "HgN/A
2:00 AM66 °FClear.7 mph83%29.77 "HgN/A
1:30 AM66 °FClear.8 mph83%29.77 "HgN/A
1:00 AM66 °FClear.8 mph83%29.77 "HgN/A
12:30 AM66 °FClear.8 mph83%29.77 "HgN/A
12:00 AM68 °FClear.8 mph78%29.77 "HgN/A
11:30 PM
Sep 18
68 °FClear.7 mph83%29.77 "HgN/A
11:00 PM68 °FClear.8 mph83%29.77 "HgN/A
10:30 PM70 °FClear.7 mph78%29.77 "HgN/A
10:00 PM72 °FClear.8 mph73%29.77 "HgN/A
9:30 PM72 °FClear.5 mph73%29.77 "HgN/A
9:00 PM72 °FClear.7 mph69%29.77 "HgN/A
8:30 PM72 °FClear.6 mph69%29.74 "HgN/A
8:00 PM73 °FClear.7 mph65%29.74 "HgN/A
7:30 PM75 °FClear.8 mph54%29.77 "HgN/A
7:00 PM77 °FClear.3 mph54%29.74 "HgN/A
6:30 PM77 °FPassing clouds.5 mph51%29.74 "HgN/A
6:00 PM77 °FPartly sunny.7 mph54%29.74 "HgN/A
5:30 PM79 °FThundershowers. Passing clouds.10 mph51%29.74 "HgN/A
5:00 PM79 °FThundershowers. Cloudy.13 mph54%29.74 "HgN/A
4:00 PM81 °FBroken clouds.10 mph51%29.74 "HgN/A
Weather by CustomWeather, © 2014

See weather overviewHow to use our weather pages